Sault Ste Marie, MI

1:23 PM EDT on July 20, 2017 (GMT -0400)
Sault Ste Marie Municipal / Sanderson Field

Weather History for KANJ - January, 2013

Change the Weather History Date:

Tuesday, January 1, 2013

  Actual Average Record
Temperature  
Mean Temperature 11 °F 17 °F  
Max Temperature 22 °F 24 °F 43 °F (2011)
Min Temperature -1 °F 10 °F -23 °F (1999)
Degree Days  
Heating Degree Days 54 48  
Month to date heating degree days 54 48  
Since 1 July heating degree days 3023 3307  
Moisture  
Dew Point 2 °F    
Average Humidity 72    
Maximum Humidity 87    
Minimum Humidity 56    
Precipitation  
Precipitation 0.02 in 0.08 in 0.49 in (1892)
Month to date precipitation 0.02 0.08  
Year to date precipitation 0.02 0.08  
Snow  
Snow 0.70 in 1.00 in 5.10 in (2012)
Month to date snowfall 0.7 1.0  
Since 1 July snowfall 52.7 51.2  
Snow Depth 10.00 in    
Sea Level Pressure  
Sea Level Pressure 30.03 in    
Wind  
Wind Speed 8 mph (SW)    
Max Wind Speed 18 mph    
Max Gust Speed 25 mph    
Visibility 7 miles    
Events Snow    
T = Trace of Precipitation, MM = Missing Value Source: NWS Daily Summary

Daily Weather History Graph

Daily Weather History Graph

Search for Another Location

Airport or City:

Trip Planner

Search our weather history database for the weather conditions in past years. The results will help you decide how hot, cold, wet, or windy it might be!

Date:

Astronomy

Jan. 01, 2013 Rise Set
Actual Time 8:21 AM EST 5:01 PM EST
Civil Twilight 7:46 AM EST 5:36 PM EST
Nautical Twilight 7:08 AM EST 6:14 PM EST
Astronomical Twilight 6:31 AM EST 6:51 PM EST
Moon 9:48 PM EST (1/1) 10:17 AM EST (1/1)
Length of Visible Light 9h 49m
Length of Day
8h 40m
Waning Gibbous, 83% of the Moon is Illuminated
Jan 1
Waning Gibbous
Jan 4
Last Quarter
Jan 11
New
Jan 18
First Quarter
Jan 26
Full

Hourly Weather History & Observations

Time (EST) Temp. Windchill Dew Point Humidity Pressure Visibility Wind Dir Wind Speed Gust Speed Precip Events Conditions
12:55 AM 8.1 °F -4.3 °F -2.9 °F 61% 30.05 in 10.0 mi NNE 8.1 mph - N/A   Clear
1:55 AM 6.1 °F -2.8 °F -4.0 °F 63% 30.05 in 10.0 mi NE 4.6 mph - N/A   Clear
2:55 AM 3.9 °F -3.4 °F -5.1 °F 66% 30.07 in 10.0 mi NE 3.5 mph - N/A   Clear
3:55 AM -0.0 °F -7.9 °F -6.0 °F 76% 30.09 in 10.0 mi South 3.5 mph - N/A   Clear
4:55 AM -0.9 °F -8.9 °F -6.0 °F 79% 30.10 in 10.0 mi South 3.5 mph - N/A   Clear
5:40 AM -0.9 °F - -6.0 °F 79% 30.06 in 10.0 mi Calm Calm - N/A   Mostly Cloudy
5:55 AM -0.0 °F - -7.1 °F 72% 30.11 in 10.0 mi Calm Calm - N/A   Mostly Cloudy
6:28 AM -0.0 °F -7.9 °F -6.0 °F 76% 30.07 in 10.0 mi SE 3.5 mph - N/A   Overcast
6:55 AM 1.9 °F -5.6 °F -4.0 °F 76% 30.11 in 10.0 mi East 3.5 mph - N/A   Overcast
7:55 AM 1.9 °F - -2.0 °F 83% 30.10 in 10.0 mi Calm Calm - 0.00 in   Overcast
8:55 AM 3.0 °F - -0.9 °F 84% 30.11 in 4.0 mi Calm Calm - 0.00 in Snow Light Snow
9:06 AM 3.0 °F - -0.0 °F 87% 30.06 in 2.0 mi Calm Calm - 0.00 in Snow Light Snow
9:13 AM 3.0 °F -6.4 °F -0.9 °F 84% 30.05 in 1.2 mi SE 4.6 mph - 0.00 in Snow Light Snow
9:21 AM 3.0 °F - -0.0 °F 87% 30.05 in 1.0 mi Calm Calm - 0.00 in Snow Light Snow
9:28 AM 3.9 °F - -0.0 °F 84% 30.05 in 1.2 mi Calm Calm - 0.00 in Snow Light Snow
9:37 AM 3.9 °F -3.4 °F -0.9 °F 80% 30.05 in 1.5 mi East 3.5 mph - 0.01 in Snow Light Snow
9:55 AM 3.9 °F -3.4 °F -0.0 °F 84% 30.10 in 1.2 mi ESE 3.5 mph - 0.01 in Snow Light Snow
10:03 AM 3.9 °F - 1.0 °F 88% 30.05 in 3.0 mi Calm Calm - 0.00 in Snow Light Snow
10:17 AM 5.0 °F -6.9 °F 1.0 °F 84% 30.04 in 3.0 mi SE 6.9 mph - 0.00 in Snow Light Snow
10:32 AM 6.1 °F - 1.0 °F 80% 30.04 in 2.5 mi Calm Calm - 0.00 in Snow Light Snow
10:40 AM 6.1 °F -0.9 °F 1.0 °F 80% 30.04 in 1.2 mi ESE 3.5 mph - 0.00 in Snow Light Snow
10:55 AM 7.0 °F -1.7 °F 1.0 °F 77% 30.08 in 3.0 mi SSE 4.6 mph - 0.00 in Snow Light Snow
11:06 AM 7.0 °F 0.1 °F 1.9 °F 80% 30.04 in 1.2 mi SE 3.5 mph - 0.00 in Snow Light Snow
11:19 AM 8.1 °F 1.4 °F 1.9 °F 76% 30.04 in 3.0 mi Variable 3.5 mph - 0.01 in Snow Light Snow
11:55 AM 10.0 °F 1.8 °F 3.9 °F 76% 30.05 in 8.0 mi SE 4.6 mph - 0.01 in   Overcast
12:26 PM 16.0 °F 7.4 °F 9.0 °F 74% 29.99 in 10.0 mi North 5.8 mph - N/A   Overcast
12:43 PM 15.1 °F 6.4 °F 9.0 °F 77% 29.98 in 1.8 mi West 5.8 mph - 0.00 in Snow Light Snow
12:55 PM 14.0 °F 6.5 °F 9.0 °F 80% 30.02 in 2.0 mi West 4.6 mph - 0.00 in Snow Light Snow
1:04 PM 15.1 °F 5.2 °F 9.0 °F 77% 29.97 in 6.0 mi WNW 6.9 mph - 0.00 in Snow Light Snow
1:22 PM 19.0 °F 8.2 °F 10.9 °F 71% 29.96 in 9.0 mi West 9.2 mph - 0.00 in   Overcast
1:55 PM 21.0 °F 9.3 °F 12.0 °F 68% 29.99 in 10.0 mi West 11.5 mph 23.0 mph 0.00 in   Overcast
2:55 PM 21.9 °F 9.8 °F 10.0 °F 60% 29.97 in 10.0 mi West 12.7 mph 19.6 mph N/A   Overcast
3:26 PM 21.0 °F 8.1 °F 10.9 °F 65% 29.93 in 10.0 mi WSW 13.8 mph 19.6 mph N/A   Overcast
3:37 PM 21.0 °F 7.1 °F 10.9 °F 65% 29.92 in 10.0 mi SW 16.1 mph 23.0 mph N/A   Overcast
3:55 PM 21.0 °F 8.1 °F 10.9 °F 65% 29.98 in 10.0 mi WSW 13.8 mph - N/A   Overcast
4:55 PM 19.9 °F 6.7 °F 9.0 °F 62% 29.98 in 10.0 mi WSW 13.8 mph - N/A   Overcast
5:55 PM 19.0 °F 5.6 °F 8.1 °F 62% 29.98 in 10.0 mi SW 13.8 mph - N/A   Overcast
6:55 PM 18.0 °F 3.6 °F 6.1 °F 60% 29.97 in 10.0 mi SW 15.0 mph - N/A   Overcast
7:55 PM 17.1 °F 3.0 °F 5.0 °F 59% 29.97 in 10.0 mi WSW 13.8 mph - N/A   Scattered Clouds
8:55 PM 15.1 °F -0.6 °F 5.0 °F 64% 29.96 in 10.0 mi WSW 16.1 mph - N/A   Mostly Cloudy
9:55 PM 16.0 °F 1.7 °F 5.0 °F 62% 29.94 in 10.0 mi WSW 13.8 mph - N/A   Clear
10:55 PM 15.1 °F 1.1 °F 3.9 °F 61% 29.94 in 10.0 mi WSW 12.7 mph - N/A   Clear
11:55 PM 15.1 °F 0.5 °F 3.9 °F 61% 29.93 in 10.0 mi WSW 13.8 mph - N/A   Overcast